EW6434 Weather Reports


Display with metric or nautical units.
time (UTC)temp
F
wind
direction
speed
MPH
gust
MPH
rain 1hr
in
rain 24hr
in
rain mn
in
humidity
%
barometer
mb
20260510094507 31 54 0.0 0.0 0.00 0.00 0.00 54 1014.5
20260510093004 31 54 0.0 1.0 0.00 0.00 0.00 57 1014.4
20260510091502 31 54 0.0 0.0 0.00 0.00 0.00 55 1014.4
20260510084600 32 54 0.0 0.0 0.00 0.00 0.00 55 1014.1
20260510083059 32 54 0.0 1.0 0.00 0.00 0.00 56 1014.1
20260510081555 32 82 0.0 2.0 0.00 0.00 0.00 55 1014.0
20260510074553 33 139 0.0 0.0 0.00 0.00 0.00 56 1013.8
20260510073110 33 70 0.0 1.0 0.00 0.00 0.00 55 1013.8
20260510071546 34 244 0.0 0.0 0.00 0.00 0.00 53 1013.7
20260510070046 34 242 0.0 0.0 0.00 0.00 0.00 53 1013.5
20260510064559 34 131 0.0 0.0 0.00 0.00 0.00 55 1013.4
20260510063041 35 248 0.0 0.0 0.00 0.00 0.00 55 1013.3
20260510061538 35 248 0.0 0.0 0.00 0.00 0.00 53 1013.3
20260510060136 36 248 0.0 0.0 0.00 0.00 0.00 55 1013.2
20260510054541 37 248 0.0 0.0 0.00 0.00 0.00 54 1013.0
20260510053042 38 276 0.0 1.0 0.00 0.00 0.00 53 1012.9
20260510051546 38 260 0.0 0.0 0.00 0.00 0.00 52 1012.8
20260510050031 39 321 0.0 2.0 0.00 0.00 0.00 51 1012.7
20260510044531 39 63 0.0 2.0 0.00 0.00 0.00 52 1012.8
20260510043030 40 241 0.0 0.0 0.00 0.00 0.00 51 1012.6
20260510041531 41 241 0.0 1.0 0.00 0.00 0.00 53 1012.3
20260510040029 41 242 0.0 0.0 0.00 0.00 0.00 49 1011.9
20260510034528 42 242 0.0 0.0 0.00 0.00 0.00 50 1011.7
20260510033027 44 269 0.0 0.0 0.00 0.00 0.00 50 1011.3
20260510031531 45 250 0.0 1.0 0.00 0.00 0.00 47 1011.1
20260510030027 46 248 0.0 0.0 0.00 0.00 0.00 46 1010.8
20260510024526 48 238 0.0 1.0 0.00 0.00 0.00 44 1010.6
20260510023026 50 106 0.0 0.0 0.00 0.00 0.00 41 1010.3
20260510021530 51 41 0.0 0.0 0.00 0.00 0.00 39 1010.2
20260510020030 52 41 0.0 1.0 0.00 0.00 0.00 39 1009.9
20260510014524 53 195 0.0 0.0 0.00 0.00 0.00 37 1009.6
20260510013024 54 195 0.0 0.0 0.00 0.00 0.00 36 1009.5
20260510011524 54 195 0.0 0.0 0.00 0.00 0.00 37 1009.4
20260510010022 55 257 0.0 2.0 0.00 0.00 0.00 34 1009.4
20260510004522 55 214 0.0 1.0 0.00 0.00 0.00 32 1009.4
20260510003022 56 158 0.0 0.0 0.00 0.00 0.00 33 1009.3
20260510001521 56 72 0.0 4.0 0.00 0.00 0.00 32 1009.2
20260510000022 55 143 0.0 0.0 0.00 0.00 0.00 34 1009.5
20260509234520 55 146 0.0 5.0 0.00 0.00 0.00 34 1009.4
20260509233021 56 250 1.0 4.0 0.00 0.00 0.00 35 1009.8
20260509231519 55 72 1.0 5.0 0.00 0.00 0.00 35 1009.3
20260509230019 55 53 0.0 4.0 0.00 0.00 0.00 36 1009.5
20260509224518 55 276 1.0 6.0 0.00 0.00 0.00 36 1009.7
20260509223019 56 238 4.0 11.0 0.00 0.00 0.00 31 1009.9
20260509221517 58 279 0.0 6.0 0.00 0.00 0.00 26 1009.0
20260509220016 59 135 0.0 3.0 0.00 0.00 0.00 27 1009.1
20260509214516 59 289 0.0 5.0 0.00 0.00 0.00 29 1009.3
20260509213018 60 158 2.0 9.0 0.00 0.00 0.00 26 1009.4
20260509211518 60 171 2.0 7.0 0.00 0.00 0.00 25 1009.1
20260509210014 61 160 2.0 7.0 0.00 0.00 0.00 24 1009.4
20260509204514 61 53 2.0 7.0 0.00 0.00 0.00 25 1009.4
20260509203023 60 243 2.0 7.0 0.00 0.00 0.00 27 1009.4
20260509201512 60 195 1.0 9.0 0.00 0.00 0.00 30 1009.8
20260509200009 62 226 1.0 6.0 0.00 0.00 0.00 27 1009.8
20260509194508 62 159 0.0 8.0 0.00 0.00 0.00 25 1009.7
20260509193008 60 174 0.0 6.0 0.00 0.00 0.00 26 1010.0
20260509191510 62 243 0.0 6.0 0.00 0.00 0.00 25 1010.0
20260509190104 60 79 2.0 10.0 0.00 0.00 0.00 26 1010.3
20260509184504 62 213 2.0 6.0 0.00 0.00 0.00 27 1010.0
20260509183003 60 8 0.0 10.0 0.00 0.00 0.00 27 1010.2
20260509181502 60 211 1.0 5.0 0.00 0.00 0.00 28 1010.2
20260509180003 60 68 1.0 8.0 0.00 0.00 0.00 28 1010.3
20260509174601 61 97 2.0 8.0 0.00 0.00 0.00 26 1010.5
20260509173104 61 229 2.0 14.0 0.00 0.00 0.00 26 1010.4
20260509171558 62 18 0.0 9.0 0.00 0.00 0.00 24 1010.2
20260509170057 61 272 1.0 8.0 0.00 0.00 0.00 25 1010.7
20260509164556 61 160 2.0 5.0 0.00 0.00 0.00 24 1010.7
20260509163100 61 198 4.0 7.0 0.00 0.00 0.00 24 1010.9
20260509161550 59 221 3.0 8.0 0.00 0.00 0.00 26 1011.0
20260509160046 59 71 1.0 9.0 0.00 0.00 0.00 27 1011.2
20260509154544 58 181 1.0 7.0 0.00 0.00 0.00 28 1011.3
20260509153049 57 264 2.0 10.0 0.00 0.00 0.00 27 1011.6
20260509151541 55 128 5.0 10.0 0.00 0.00 0.00 27 1011.8
20260509150041 54 308 2.0 6.0 0.00 0.00 0.00 29 1011.8
20260509144532 53 95 0.0 11.0 0.00 0.00 0.00 30 1011.9
20260509143029 52 335 1.0 7.0 0.00 0.00 0.00 31 1012.1
20260509141524 51 46 2.0 8.0 0.00 0.00 0.00 32 1012.1
20260509140020 48 220 1.0 7.0 0.00 0.00 0.00 35 1012.2
20260509134516 42 314 1.0 8.0 0.00 0.00 0.00 45 1012.2
20260509133014 37 139 0.0 0.0 0.00 0.00 0.00 57 1012.2
20260509131513 36 219 0.0 0.0 0.00 0.00 0.00 56 1012.1
20260509130012 36 219 0.0 0.0 0.00 0.00 0.00 57 1012.0
20260509124511 34 124 0.0 0.0 0.00 0.00 0.00 61 1011.8
20260509123011 34 90 0.0 1.0 0.00 0.00 0.00 64 1011.7
20260509121513 34 251 0.0 0.0 0.00 0.00 0.00 65 1011.6
20260509120007 34 251 0.0 1.0 0.00 0.00 0.00 65 1011.5
20260509114510 34 274 0.0 0.0 0.00 0.00 0.00 65 1011.5
20260509113006 35 269 0.0 1.0 0.00 0.00 0.00 64 1011.2
20260509111505 35 254 0.0 0.0 0.00 0.00 0.00 63 1011.4
20260509110003 35 275 0.0 2.0 0.00 0.00 0.00 66 1011.4
20260509104503 35 266 0.0 3.0 0.00 0.00 0.00 68 1011.7
20260509103104 35 272 0.0 1.0 0.00 0.00 0.00 67 1011.8
20260509101603 35 304 0.0 4.0 0.00 0.00 0.00 67 1011.8
20260509100101 34 274 0.0 1.0 0.00 0.00 0.00 70 1011.9